[[{"header":{"parameterUnit":"m.s-1","parameterCategory":1,"la1":30.2991,"la2":30.254,"lo1":-89.0895,"lo2":-89.0444,"dy":0.0017,"dx":0.0017,"nx":28,"ny":28,"refTime":"2025-04-01T03:00:00:Z","depth":0,"parameterNumber":2,"parameterNumberName":"U-component_of_WINDS"},"data":[0,0,0,0,0,0,0,0,0,0,0,0,0,0,0,0,0,0,0,0,0,0,0,0,0,0,0,0,0,0,0,0,0,0,0,0,0,0,0,0,0,0,0,0,0,0,0,0,0,0,0,0,0,0,0,0,0,0,-4.0551,-4.0551,0,-4.0596,-4.0596,-4.0597,-4.0495,-4.0491,-4.0488,-4.0485,-4.0528,-4.0532,-4.0536,0,0,0,0,0,0,0,0,0,0,0,0,0,-4.0374,-4.0378,-4.0551,-4.0551,-4.0552,-4.0596,-4.0596,-4.0597,-4.0495,-4.0491,-4.0487,-4.0484,-4.0527,-4.0532,-4.0537,0,0,0,0,0,0,0,0,0,0,0,0,0,-4.0438,-4.0379,-4.0551,-4.0507,-4.0503,-4.0596,-4.0596,-4.0597,-4.0496,-4.0491,-4.0486,-4.0482,-4.0525,-4.0531,-4.0537,-4.0674,0,0,-4.0557,-4.0559,0,0,0,0,0,0,0,0,-4.0435,-4.0445,-4.0513,-4.051,-4.0506,-4.0535,-4.055,-4.0623,-4.0497,-4.0499,-4.0485,-4.0479,-4.0534,-4.0539,-4.0558,-4.0676,-4.0678,-4.0557,-4.0561,-4.0564,-4.0565,0,0,0,0,0,0,0,-4.043,-4.0442,-4.0568,-4.0514,-4.051,-4.0484,-4.0487,-4.0563,-4.0543,-4.0498,-4.0491,-4.0498,-4.0531,-4.0553,-4.0559,-4.0678,-4.0557,-4.0563,-4.0566,-4.0569,-4.0912,-4.0917,0,0,0,0,0,0,-4.0432,-4.0439,-4.0567,-4.057,-4.0458,-4.0491,-4.0495,-4.053,-4.0542,-4.0539,-4.0502,-4.0493,-4.0544,-4.0551,-4.056,-4.0722,-4.0564,-4.0569,-4.0573,-4.0906,-4.0913,-4.0919,0,0,0,0,0,0,-4.0429,-4.0444,-4.0565,-4.0503,-4.0516,-4.0499,-4.054,-4.0534,-4.0555,-4.0545,-4.0541,-4.0528,-4.0541,-4.0551,-4.0647,-4.0722,-4.0572,-4.0578,-4.09,-4.0908,-4.0916,-4.1047,0,0,0,0,0,0,-4.0424,-4.0444,-4.0496,-4.0505,-4.052,-4.0653,-4.0544,-4.0538,-4.0567,-4.0555,-4.0568,-4.0565,-4.0538,-4.0638,-4.0653,-4.0728,-4.0583,-4.0893,-4.0904,-4.0913,-4.1036,-4.1059,-4.1078,0,0,0,0,0,-4.0418,-4.053,-4.0499,-4.0515,-4.0585,-4.0657,-4.0666,-4.0633,-4.0573,-4.0625,-4.0619,-4.0565,-4.0711,-4.0649,-4.0665,-4.0743,-4.0888,-4.0901,-4.0912,-4.1027,-4.1054,-4.1078,0,0,0,0,0,0,-4.053,-4.0531,-4.0496,-4.0615,-4.0637,-4.064,-4.0705,-4.0663,-4.0702,-4.0689,-4.0645,-4.0649,-4.0754,-4.0757,-4.0688,-4.0876,-4.0789,-4.0805,-4.0871,-4.0897,-4.0918,-4.0916,-4.0588,0,0,0,0,0,-4.0568,-4.0628,-4.0625,-4.073,-4.0743,-4.0723,-4.0752,-4.0725,-4.0746,-4.0755,-4.0755,-4.0777,-4.0827,-4.0862,-4.0908,-4.1035,-4.1037,-4.1097,-4.1118,-4.1135,-4.115,-4.1219,-4.1246,-4.0958,-4.0958,-4.0958,0,0,-4.0648,-4.0656,-4.0696,-4.0752,-4.0766,-4.0829,-4.0731,-4.08,-4.0847,-4.0765,-4.0857,-4.0858,-4.0878,-4.0992,-4.1041,-4.0998,-4.123,-4.115,-4.1164,-4.117,-4.1235,-4.1262,-4.1286,-4.0966,-4.0965,-4.0964,0,0,-4.0827,-4.0838,-4.0928,-4.0944,-4.0967,-4.0953,-4.0975,-4.0985,-4.0983,-4.1074,-4.1015,-4.1068,-4.1156,-4.1174,-4.1195,-4.1381,-4.1334,-4.1397,-4.1507,-4.1576,-4.1598,-4.1618,-4.1687,-4.1712,-4.1411,-4.1412,-4.1412,0,-4.0923,-4.1016,-4.0979,-4.1054,-4.1081,-4.101,-4.1101,-4.1118,-4.1155,-4.1175,-4.1125,-4.1236,-4.1244,-4.1362,-4.1408,-4.1426,-4.145,-4.1396,-4.1598,-4.1618,-4.1636,-4.1701,-4.1727,-4.1419,-4.1418,-4.1418,-4.1417,0,-4.1134,-4.12,-4.1269,-4.1309,-4.1343,-4.1425,-4.14,-4.1439,-4.1408,-4.1399,-4.1494,-4.1502,-4.155,-4.1575,-4.1545,-4.1689,-4.1661,-4.1606,-4.1518,-4.1672,-4.1732,-4.1757,-4.143,-4.1428,-4.1425,-4.1423,0,0,-4.1385,-4.1404,-4.143,-4.1448,-4.1469,-4.1518,-4.1597,-4.1645,-4.168,-4.1707,-4.1773,-4.1849,-4.1799,-4.1822,-4.1794,-4.1853,-4.2003,-4.1791,-4.179,-4.1832,-4.2164,-4.2208,-4.2237,-4.1971,-4.1975,-4.1979,-4.2163,0,-4.1564,-4.1702,-4.1671,-4.1806,-4.1867,-4.1801,-4.187,-4.189,-4.1884,-4.1933,-4.1925,-4.1981,-4.1909,-4.1923,-4.1979,-4.1973,-4.207,-4.1959,-4.2032,-4.2035,-4.2032,-4.2268,-4.2314,-4.2487,-4.2186,-4.219,-4.2193,0,-4.1791,-4.1829,-4.1972,-4.1984,-4.2008,-4.2071,-4.2113,-4.2161,-4.2182,-4.2173,-4.2201,-4.2161,-4.2239,-4.2149,-4.2256,-4.2182,-4.221,-4.2211,-4.2217,-4.2225,-4.2125,-4.2284,-4.2542,-4.2569,-4.2229,-4.2226,-4.2224,0,-4.1963,-4.2049,-4.2147,-4.2163,-4.2179,-4.2226,-4.2234,-4.225,-4.2282,-4.2318,-4.2338,-4.2382,-4.2407,-4.2441,-4.2414,-4.2351,-4.2527,-4.2434,-4.2522,-4.2523,-4.2564,-4.2562,-4.2832,-4.2578,-4.2578,-4.2577,-4.2577,0,-4.2167,-4.2257,-4.2224,-4.2285,-4.2384,-4.2347,-4.2446,-4.2446,-4.2461,-4.252,-4.2464,-4.252,-4.248,-4.2533,-4.2511,-4.2605,-4.2615,-4.2611,-4.2605,-4.2617,-4.2619,-4.2637,-4.2625,-4.2584,-4.2583,-4.2581,-4.258,0,-4.2377,-4.2358,-4.246,-4.2468,-4.2472,-4.2545,-4.2551,-4.2606,-4.2595,-4.2671,-4.2686,-4.2669,-4.2728,-4.2704,-4.2766,-4.2752,-4.2872,-4.2848,-4.2866,-4.2861,-4.2951,-4.2944,-4.3245,-4.3283,-4.3002,-4.3005,-4.3007,0,-4.2509,-4.2578,-4.2593,-4.263,-4.2643,-4.2701,-4.2733,-4.2699,-4.2735,-4.2765,-4.2817,-4.2871,-4.2913,-4.301,-4.3003,-4.305,-4.3029,-4.3131,-4.3036,-4.3047,-4.3034,-4.3031,-4.3039,-4.3151,-4.3154,-4.3157,-4.3159,0,-4.2748,-4.2736,-4.2785,-4.2832,-4.2873,-4.2907,-4.2937,-4.2969,-4.2936,-4.2979,-4.304,-4.3072,-4.3136,-4.3192,-4.3234,-4.3241,-4.3196,-4.3189,-4.3212,-4.3227,-4.3236,-4.3235,-4.2921,-4.3183,-4.318,-4.3178,-4.3177,-4.3176,-4.2924,-4.2983,-4.3004,-4.3061,-4.308,-4.311,-4.3163,-4.316,-4.321,-4.3261,-4.3237,-4.3308,-4.3327,-4.338,-4.3394,-4.3448,-4.3408,-4.3441,-4.345,-4.346,-4.3473,-4.3225,-4.3455,-4.3454,-4.3454,-4.3453,-4.3453,0,-4.3162,-4.3173,-4.3226,-4.327,-4.3316,-4.3269,-4.3299,-4.334,-4.3404,-4.3426,-4.347,-4.354,-4.3593,-4.3591,-4.364,-4.3684,-4.3665,-4.3699,-4.3696,-4.3699,-4.3505,-4.3481,-4.3714,-4.3714,-4.3714,-4.3714,-4.3714,-4.3714,-4.3291,-4.3389,-4.338,-4.3486,-4.3495,-4.3566,-4.3587,-4.3614,-4.3632,-4.3714,-4.3759,-4.3757,-4.377,-4.382,-4.3867,-4.3865,-4.3886,-4.3929,-4.3919,-4.3738,-4.3712,-4.3688,-4.3665,-4.3933,-4.3934,-4.4109,-4.4111,-4.4112]},{"header":{"parameterUnit":"m.s-1","parameterCategory":1,"la1":30.2991,"la2":30.254,"lo1":-89.0895,"lo2":-89.0444,"dy":0.0017,"dx":0.0017,"nx":28,"ny":28,"refTime":"2025-04-01T03:00:00:Z","depth":0,"parameterNumber":3,"parameterNumberName":"V-component_of_WINDS"},"data":[0,0,0,0,0,0,0,0,0,0,0,0,0,0,0,0,0,0,0,0,0,0,0,0,0,0,0,0,0,0,0,0,0,0,0,0,0,0,0,0,0,0,0,0,0,0,0,0,0,0,0,0,0,0,0,0,0,0,-2.6308,-2.6309,0,-2.6414,-2.6415,-2.6416,-2.6437,-2.6436,-2.6435,-2.6435,-2.6542,-2.6545,-2.6549,0,0,0,0,0,0,0,0,0,0,0,0,0,-2.6122,-2.6126,-2.6308,-2.6309,-2.6311,-2.6413,-2.6415,-2.6416,-2.6437,-2.6436,-2.6435,-2.6434,-2.654,-2.6545,-2.6549,0,0,0,0,0,0,0,0,0,0,0,0,0,-2.6213,-2.6127,-2.6308,-2.6334,-2.6337,-2.6413,-2.6415,-2.6417,-2.6437,-2.6436,-2.6435,-2.6434,-2.6539,-2.6544,-2.655,-2.6607,0,0,-2.6566,-2.6568,0,0,0,0,0,0,0,0,-2.6208,-2.622,-2.6328,-2.6332,-2.6336,-2.6411,-2.6389,-2.6481,-2.6438,-2.6399,-2.6435,-2.6433,-2.6499,-2.6508,-2.653,-2.6612,-2.6617,-2.6567,-2.657,-2.6572,-2.6574,0,0,0,0,0,0,0,-2.6201,-2.6215,-2.635,-2.633,-2.6334,-2.6339,-2.6351,-2.6406,-2.6455,-2.6402,-2.6404,-2.6417,-2.6501,-2.6525,-2.6533,-2.6618,-2.6566,-2.6571,-2.6575,-2.6577,-2.6752,-2.6753,0,0,0,0,0,0,-2.6191,-2.621,-2.6346,-2.6353,-2.6267,-2.6343,-2.6356,-2.6388,-2.6454,-2.6463,-2.6417,-2.6417,-2.6516,-2.6526,-2.6537,-2.6608,-2.6572,-2.6577,-2.658,-2.675,-2.6752,-2.6754,0,0,0,0,0,0,-2.6187,-2.6203,-2.6342,-2.6282,-2.63,-2.6348,-2.6383,-2.6391,-2.6415,-2.6465,-2.6474,-2.6433,-2.6516,-2.6529,-2.6589,-2.6612,-2.658,-2.6585,-2.6749,-2.6751,-2.6753,-2.6751,0,0,0,0,0,0,-2.6181,-2.6201,-2.6224,-2.6282,-2.6303,-2.6394,-2.6385,-2.6394,-2.6424,-2.6425,-2.6483,-2.6491,-2.6516,-2.6581,-2.6595,-2.6619,-2.6589,-2.6747,-2.675,-2.6752,-2.675,-2.6753,-2.6756,0,0,0,0,0,-2.6175,-2.622,-2.6225,-2.6242,-2.6333,-2.6395,-2.6407,-2.6435,-2.6426,-2.6449,-2.6481,-2.6489,-2.6607,-2.6587,-2.6603,-2.6629,-2.6746,-2.6749,-2.6752,-2.6748,-2.6752,-2.6756,0,0,0,0,0,0,-2.6163,-2.6228,-2.6235,-2.63,-2.6342,-2.6399,-2.6429,-2.6439,-2.6484,-2.6482,-2.6515,-2.6528,-2.6586,-2.6613,-2.659,-2.6687,-2.6676,-2.6682,-2.6667,-2.6672,-2.6675,-2.6668,-2.6593,0,0,0,0,0,-2.6168,-2.6214,-2.6268,-2.632,-2.6341,-2.6381,-2.6409,-2.6427,-2.6471,-2.6489,-2.6526,-2.6568,-2.6615,-2.6645,-2.669,-2.6753,-2.6766,-2.6779,-2.6782,-2.6784,-2.679,-2.6824,-2.683,-2.6764,-2.6764,-2.6764,0,0,-2.6179,-2.622,-2.6247,-2.6319,-2.6353,-2.6399,-2.6396,-2.6445,-2.6479,-2.6496,-2.6556,-2.6584,-2.6633,-2.6695,-2.6724,-2.6719,-2.681,-2.6788,-2.679,-2.6794,-2.6828,-2.6834,-2.6839,-2.6766,-2.6766,-2.6766,0,0,-2.6223,-2.6258,-2.6306,-2.634,-2.6392,-2.6419,-2.643,-2.6485,-2.6504,-2.6564,-2.6578,-2.6618,-2.6698,-2.6732,-2.676,-2.6815,-2.6823,-2.6828,-2.6846,-2.6879,-2.6884,-2.6889,-2.6908,-2.6914,-2.6833,-2.6833,-2.6833,0,-2.623,-2.63,-2.6329,-2.6377,-2.6407,-2.6425,-2.6472,-2.6504,-2.6568,-2.6589,-2.6583,-2.6683,-2.6717,-2.6787,-2.68,-2.6822,-2.6835,-2.6823,-2.6881,-2.6886,-2.6891,-2.6909,-2.6917,-2.6834,-2.6834,-2.6834,-2.6834,0,-2.6306,-2.6354,-2.6385,-2.6447,-2.6481,-2.6529,-2.6563,-2.6594,-2.6608,-2.6635,-2.6695,-2.6737,-2.6791,-2.6808,-2.6823,-2.688,-2.6875,-2.6875,-2.6864,-2.6897,-2.6915,-2.6922,-2.6834,-2.6834,-2.6834,-2.6834,0,0,-2.6346,-2.6422,-2.6433,-2.6461,-2.6519,-2.6556,-2.6604,-2.6657,-2.6682,-2.6725,-2.6766,-2.6832,-2.6831,-2.6863,-2.6881,-2.691,-2.695,-2.6906,-2.6908,-2.6913,-2.7014,-2.7014,-2.7022,-2.6955,-2.6957,-2.6958,-2.7009,0,-2.6397,-2.6483,-2.6509,-2.6581,-2.6625,-2.6642,-2.6683,-2.6723,-2.6748,-2.6789,-2.6817,-2.6863,-2.6859,-2.6878,-2.6908,-2.6939,-2.697,-2.6935,-2.6992,-2.6994,-2.698,-2.7031,-2.7032,-2.7079,-2.7017,-2.7018,-2.7019,0,-2.6468,-2.6512,-2.6588,-2.6639,-2.6659,-2.6696,-2.6746,-2.6784,-2.6829,-2.6845,-2.688,-2.6895,-2.6944,-2.693,-2.6998,-2.6973,-2.6998,-2.7016,-2.7019,-2.7025,-2.7009,-2.7039,-2.7094,-2.7101,-2.703,-2.7029,-2.7028,0,-2.6489,-2.6568,-2.6624,-2.6647,-2.6708,-2.6733,-2.676,-2.6803,-2.6833,-2.6876,-2.6895,-2.6943,-2.697,-2.7006,-2.7034,-2.7021,-2.7099,-2.7087,-2.7113,-2.7113,-2.713,-2.7128,-2.719,-2.7145,-2.7145,-2.7145,-2.7145,0,-2.6543,-2.6589,-2.6634,-2.6668,-2.672,-2.6749,-2.6799,-2.6826,-2.6864,-2.6903,-2.692,-2.6956,-2.699,-2.703,-2.7052,-2.7104,-2.7116,-2.713,-2.7136,-2.7129,-2.7127,-2.7146,-2.7144,-2.7147,-2.7146,-2.7146,-2.7146,0,-2.6577,-2.6609,-2.667,-2.6723,-2.6737,-2.6773,-2.6817,-2.685,-2.6876,-2.6925,-2.6938,-2.6978,-2.7026,-2.7057,-2.7119,-2.7133,-2.719,-2.7195,-2.7175,-2.7178,-2.7203,-2.72,-2.7279,-2.729,-2.7237,-2.7238,-2.7238,0,-2.661,-2.6645,-2.6701,-2.6729,-2.6755,-2.6799,-2.683,-2.6859,-2.6889,-2.6942,-2.6968,-2.7018,-2.7059,-2.7135,-2.7169,-2.7216,-2.7221,-2.7245,-2.7228,-2.722,-2.7221,-2.7219,-2.7223,-2.7248,-2.7249,-2.7249,-2.7249,0,-2.6664,-2.6677,-2.6721,-2.6769,-2.6804,-2.6844,-2.6883,-2.6904,-2.694,-2.6973,-2.7023,-2.7054,-2.7117,-2.7165,-2.7215,-2.7241,-2.7251,-2.7254,-2.7263,-2.7257,-2.7244,-2.7251,-2.7183,-2.7253,-2.7252,-2.7252,-2.7252,-2.7252,-2.6698,-2.673,-2.6774,-2.6821,-2.6854,-2.689,-2.6923,-2.6952,-2.6994,-2.7048,-2.7062,-2.7113,-2.7155,-2.7223,-2.725,-2.729,-2.7287,-2.73,-2.7303,-2.7306,-2.7306,-2.7237,-2.7299,-2.7299,-2.7299,-2.7299,-2.7299,0,-2.6753,-2.6782,-2.6825,-2.6879,-2.6916,-2.6922,-2.6965,-2.6995,-2.704,-2.7079,-2.7118,-2.7175,-2.7221,-2.7258,-2.7306,-2.7331,-2.7337,-2.7342,-2.7341,-2.7347,-2.7306,-2.7294,-2.7337,-2.7337,-2.7337,-2.7337,-2.7337,-2.7337,-2.6786,-2.6841,-2.6859,-2.6929,-2.6957,-2.7008,-2.7032,-2.7065,-2.7096,-2.7158,-2.7197,-2.7221,-2.7258,-2.7309,-2.7351,-2.7361,-2.7378,-2.7382,-2.7393,-2.7354,-2.735,-2.7346,-2.7335,-2.7386,-2.7386,-2.7431,-2.7431,-2.7431]}]]